Location: Fountain Hills
(33.6120°N, 111.7170°W)
Time: 11:20:31
(UTC-07:00)

Daily predictions for brighter satellites

Satellite Brightness Start Highest point End
(mag) Time Altitude Azimuth Time Altitude Azimuth Time Altitude Azimuth
Cosmos 2233 Rocket 4.3 18:30:42 10° N 18:36:43 46° E 18:42:39 10° SSE
Cosmos 1633 4.4 18:35:53 10° ESE 18:37:07 11° E 18:38:21 10° ENE
Cosmos 2016 Rocket 4.4 18:31:24 10° N 18:37:44 74° W 18:43:59 10° S
Meteor 1-27 Rocket 3.8 18:32:08 10° N 18:37:59 67° E 18:43:52 10° SSE
MONITOR-E 4.2 18:35:45 10° SSE 18:38:40 51° ENE 18:41:38 10° N
METEOR-M 4.4 18:33:39 10° S 18:38:59 76° WSW 18:44:21 10° NNW
Cosmos 2084 Rocket 3.5 18:35:47 10° SSW 18:40:16 88° WNW 18:44:34 10° NNE
Cosmos 1980 4.3 18:35:42 10° N 18:40:51 34° ENE 18:45:57 10° SE
Lacrosse 5 2.9 18:36:44 10° NNW 18:41:00 26° NE 18:45:13 10° E
MOS 1 4.3 18:36:58 10° SSE 18:42:31 63° ENE 18:48:07 10° N
CZ-4 R/B 2.7 18:38:43 10° S 18:42:41 46° W 18:46:36 10° NNW
Iridium 2 3.7 18:41:41 10° N 18:45:31 88° W 18:49:19 10° S
Cosmos 2221 Rocket 3.7 18:42:11 10° N 18:46:36 82° W 18:51:01 10° S
Cosmos 1862 4.3 18:43:00 10° SSW 18:46:52 51° W 18:50:45 10° N
SJ-6B 4.5 18:47:28 10° E 18:49:21 13° ENE 18:51:14 10° NE
ALOS 2.3 18:46:48 10° SSE 18:51:28 86° WSW 18:56:09 10° NNW
Landsat 4 3.7 18:48:04 10° NNE 18:51:48 87° WNW 18:55:33 10° SSW
Abrixas rocket 2.2 18:53:44 10° NW 18:56:52 54° NE 18:59:43 12° ESE
Cosmos 2285 Rocket 4.3 18:53:30 10° SSW 18:59:47 74° WNW 19:06:10 10° NNE
Cosmos 1371 Rocket 4.0 18:54:44 10° NNW 19:00:01 78° ENE 19:05:19 10° SSE
SeaSat 1 3.5 19:00:41 10° ESE 19:04:37 25° ENE 19:08:35 10° N
COSMO-SKYMED 1 4.3 19:00:54 10° N 19:04:53 36° WNW 19:08:51 10° SW
DELTA 2 R/B (1) 4.0 19:03:41 10° WNW 19:09:09 61° SSW 19:14:38 10° SE
ATLAS 2A CENTAUR R/B 4.4 18:56:13 10° W 19:09:38 36° SW 19:15:17 10° SSE
MOS 1-B Rocket 4.4 19:03:35 10° S 19:10:28 73° WSW 19:16:28 10° NNW
USA 215 3.4 19:05:16 10° NE 19:11:48 77° NW 19:18:19 10° SW
GPS 2-04 Rocket1 4.0 19:11:02 10° W 19:14:25 31° SSW 19:17:38 10° SE
Cosmos 2219 Rocket 2.8 19:09:19 10° NNW 19:14:53 61° WSW 19:20:25 10° S
NOSS 3-2 (C) 3.8 19:09:43 10° SW 19:15:29 64° WNW 19:21:51 10° NNE
H-2A R/B 2.7 19:15:12 10° SSE 19:19:06 86° ENE 19:23:02 10° N
SPOT 3 Rocket 3.8 19:14:23 10° S 19:19:33 74° WSW 19:24:47 10° NNW
Cosmos 2227 Rocket 2.8 19:15:29 10° SSW 19:21:03 60° WNW 19:26:38 10° NNE
SL-8 R/B 3.7 19:18:21 10° SW 19:23:07 81° NW 19:26:31 19° NE
Cosmos 2237 Rocket 2.1 19:20:32 10° NNW 19:26:11 79° ENE 19:31:47 10° SSE
OAO 2 Rocket 3.6 19:21:39 10° SW 19:26:25 49° SSE 19:28:42 27° E
SL-16 R/B 2.9 19:22:47 10° N 19:27:46 31° ENE 19:29:37 25° E
Cosmos 2056 Rocket 3.9 19:24:07 10° NNW 19:29:31 72° WSW 19:34:53 10° S
CZ-2D R/B 3.8 19:28:44 29° ESE 19:29:53 36° ENE 19:33:29 10° N
Meteor 1-20 Rocket 4.2 19:24:26 10° S 19:29:59 64° E 19:35:40 10° NNE
Cosmos 405 4.0 19:29:21 10° SSW 19:32:43 46° W 19:36:07 10° N
Cosmos 1674 Rocket 3.4 19:30:10 10° N 19:34:32 82° E 19:38:50 10° S
Meteor 1-18 Rocket 4.3 19:30:01 10° N 19:35:27 49° E 19:40:47 10° SSE
Cosmos 2297 Rocket 3.0 19:30:04 10° SW 19:35:33 52° WNW 19:41:04 10° N
Cosmos 1908 Rocket 3.5 19:31:34 10° S 19:35:59 70° E 19:40:27 10° NNE
Cosmos 1452 Rocket 3.7 19:30:55 10° N 19:36:00 47° ENE 19:39:16 21° SE
Cosmos 1048 Rocket 4.1 19:35:38 10° S 19:40:51 55° ESE 19:45:20 14° NNE
Shenzhou-11 Module 2.1 19:39:01 10° NW 19:41:45 63° N 19:41:45 63° N
USA 267 4.5 19:40:30 21° NE 19:42:17 23° NNE 19:47:11 10° NNW
Cosmos 1812 2.8 19:39:55 10° N 19:43:48 77° W 19:47:38 10° S
Resurs 01 Rocket 3.5 19:47:32 17° NNE 19:47:32 17° NNE 19:48:46 10° NNE
Geosat 3.9 19:42:34 10° NNE 19:47:38 81° ESE 19:52:38 10° SSW
Meteor 1-25 Rocket 4.3 19:44:34 10° SSW 19:50:06 75° W 19:55:39 10° N
CZ-3C R/B 3.6 19:46:35 10° SSW 19:50:27 24° SE 19:52:34 22° SE
CENTAUR R/B 2.4 19:45:16 10° SSW 19:51:05 87° WNW 19:57:09 13° NNE
ERS-2 3.4 19:49:28 10° S 19:52:58 42° W 19:56:30 10° NNW
Cosmos 1437 Rocket 4.3 19:49:22 10° S 19:51:06 24° SSE 19:51:06 24° SSE
BREEZE-M DEB (TANK) 2.8 19:50:49 10° SSW 19:53:27 67° SE 19:53:47 63° E
Tiangong 2 3.1 19:52:01 10° NW 19:53:40 21° NNW 19:53:40 21° NNW
Cosmos 2333 Rocket 4.1 19:52:03 10° NW 19:56:52 29° WSW 20:01:39 10° SSW
Cosmos 1420 Rocket 3.9 19:54:18 10° N 19:59:33 64° ENE 20:00:39 51° ESE
Cosmos 158 Rocket 4.4 19:55:32 10° SSW 20:00:23 58° WNW 20:05:12 10° N
Cosmos 44 Rocket 4.3 19:58:19 10° NNW 20:01:50 33° NNE 20:01:50 33° NNE
Iridium 4 Rocket 3.4 19:58:38 10° N 20:03:32 70° W 20:08:00 10° S
Cosmos 1513 Rocket 4.4 19:57:17 10° N 20:03:41 89° E 20:09:55 10° S
Okean 3 4.4 20:02:37 10° NNW 20:06:37 48° W 20:10:38 10° SSW
Tsikada Rocket 3.9 20:03:05 10° S 20:09:26 75° E 20:15:50 10° N
Lacrosse 5 2.8 20:19:18 10° NW 20:24:05 44° WSW 20:25:19 36° SSW
Envisat 3.6 20:23:17 10° S 20:28:15 55° W 20:33:14 10° NNW
Cosmos 1269 Rocket 4.3 20:24:38 10° SSW 20:29:52 64° WNW 20:30:51 53° NNW
SeaSat 1 3.8 20:40:28 30° SW 20:41:55 36° WSW 20:46:27 10° NW
Cosmos 44 4.5 20:41:46 10° NW 20:45:16 42° WNW 20:45:16 42° WNW
SL-16 R/B 3.8 21:06:53 10° NW 21:11:35 30° W 21:11:35 30° W
